Regional Weather Roundup
Issued by NWS

Home | Current Version | Previous Version | Text Only | Print | Product List | Glossary Off
Versions: 1 2 3 4 5 6 7 8 9 10 11 12 13 14 15 16 17 18 19 20 21 22 23 24 25 26 27 28 29 30 31 32 33 34 35 36 37 38 39 40 41 42 43 44 45 46 47 48 49 50

000
ASUS44 KMEG 231010
RWRTN
TENNESSEE HOURLY STATE WEATHER ROUNDUP
NATIONAL WEATHER SERVICE MEMPHIS TN
500 AM CDT THU OCT 23 2014

TNZ002-004-019-021-049-052-054-088>092-231100-
WEST TENNESSEE

CITY           SKY/WX    TMP DP  RH WIND       PRES   REMARKS
MEMPHIS INTL   PTCLDY    48  42  80 E3        30.18R
NWS MEMPHIS      N/A     44 N/A N/A MISG        N/A
JACKSON        PTCLDY    37  36  93 CALM      30.19S FOG
DYERSBURG      CLEAR     43  32  65 E3        30.21R
UNION CITY     CLEAR     36  36 100 CALM      30.19S
PARIS          CLEAR     43  39  87 E7        30.20F
LEXINGTON      CLEAR     37  37 100 CALM      30.18S
SAVANNAH       CLEAR     34  34 100 CALM      30.18S
$$

TNZ008-025-027-028-033-062-065-066-231100-
NORTH MIDDLE TENNESSEE

CITY           SKY/WX    TMP DP  RH WIND       PRES   REMARKS
NASHVILLE      CLEAR     42  40  92 W3        30.24R
CLARKSVILLE    FOG       36  35  96 CALM      30.24R VSB 1/4
SMYRNA         CLEAR     36  36 100 CALM      30.24R FOG
COOKEVILLE     CLEAR     34  32  93 CALM      30.21R
CROSSVILLE     CLEAR     38  35  89 NE6       30.20R WCI  33
$$

TNZ061-075-076-078-094-096-097-231100-
SOUTH MIDDLE TENNESSEE

CITY           SKY/WX    TMP DP  RH WIND       PRES   REMARKS
FAYETTEVILLE   CLEAR     39  37  93 N6        30.19R WCI  35
TULLAHOMA      CLEAR     39  37  93 NE3       30.20R
WINCHESTER     CLEAR     34  34 100 CALM      30.20R
MCMINNVILLE    CLEAR     37  37 100 CALM      30.21R
COLUMBIA       CLEAR    N/A N/A N/A CALM      30.19S
SHELBYVILLE    CLEAR     36  36 100 CALM      30.22S
$$

TNZ017-018-042-046-047-231100-
NORTHEAST TENNESSEE

CITY           SKY/WX    TMP DP  RH WIND       PRES   REMARKS
TRI CITIES     CLOUDY    48  40  73 N5        30.19R
ELIZABETHTON   CLOUDY    45  37  76 CALM      30.18R
$$

TNZ012-013-036-069-073-074-231100-
CENTRAL EAST TENNESSEE

CITY           SKY/WX    TMP DP  RH WIND       PRES   REMARKS
KNOXVILLE      PTCLDY    42  38  85 NE6       30.19R
OAK RIDGE      CLOUDY    48  42  80 CALM      30.21S
GATLINBURG     SUNNY     37  36  93 CALM      30.19S
MORRISTOWN     CLOUDY    46  41  81 CALM      30.20R
$$

TNZ083-085-099-231100-
SOUTHEAST TENNESSEE

CITY           SKY/WX    TMP DP  RH WIND       PRES   REMARKS
CHATTANOOGA    CLEAR     47  40  76 N7        30.18R
$$

SKY/WX REPORTED AS FAIR MEANS FEW OR NO CLOUDS BELOW
12 THOUSAND FEET.




USA.gov is the U.S. government's official web portal to all federal, state and local government web resources and services.